Year,Month,Day,Hour,Minute,Value (Times are PST for temperature in C)
2008,06,23,00,01,10.00
2008,06,23,00,02,10.00
2008,06,23,00,03,9.90
2008,06,23,00,04,10.00
2008,06,23,00,05,9.90
2008,06,23,00,06,9.90
2008,06,23,00,07,9.90
2008,06,23,00,08,9.90
2008,06,23,00,09,9.90
2008,06,23,00,10,9.90
2008,06,23,00,11,9.90
2008,06,23,00,12,9.90
2008,06,23,00,13,9.90
2008,06,23,00,14,9.90
2008,06,23,00,15,9.90
2008,06,23,00,16,9.90
2008,06,23,00,17,9.90
2008,06,23,00,18,9.90
2008,06,23,00,19,10.00
2008,06,23,00,20,10.00
2008,06,23,00,21,9.90
2008,06,23,00,22,9.90
2008,06,23,00,23,9.90
2008,06,23,00,24,9.90
2008,06,23,00,25,9.90
2008,06,23,00,26,9.90
2008,06,23,00,27,9.90
2008,06,23,00,28,9.90
2008,06,23,00,29,9.90
2008,06,23,00,30,9.90
2008,06,23,00,31,9.90
2008,06,23,00,32,9.90
2008,06,23,00,33,9.90
2008,06,23,00,34,9.90
2008,06,23,00,35,9.90
2008,06,23,00,36,9.90
2008,06,23,00,37,9.90
2008,06,23,00,38,9.90
2008,06,23,00,39,9.90
2008,06,23,00,40,9.90
2008,06,23,00,41,9.90
2008,06,23,00,42,9.90
2008,06,23,00,43,9.90
2008,06,23,00,44,9.90
2008,06,23,00,45,9.80
2008,06,23,00,46,9.90
2008,06,23,00,47,9.90
2008,06,23,00,48,9.90
2008,06,23,00,50,9.90
2008,06,23,00,51,9.80
2008,06,23,00,52,9.90
2008,06,23,00,53,9.90
2008,06,23,00,54,9.90
2008,06,23,00,55,9.90
2008,06,23,00,56,9.90
2008,06,23,00,57,9.90
2008,06,23,00,58,9.90
2008,06,23,00,59,9.90
2008,06,23,01,00,9.90
2008,06,23,01,01,9.90
2008,06,23,01,02,9.90
2008,06,23,01,03,9.90
2008,06,23,01,04,9.90
2008,06,23,01,05,9.90
2008,06,23,01,06,9.90
2008,06,23,01,07,9.90
2008,06,23,01,08,9.90
2008,06,23,01,09,9.90
2008,06,23,01,10,9.90
2008,06,23,01,11,9.90
2008,06,23,01,12,9.90
2008,06,23,01,13,9.90
2008,06,23,01,14,9.90
2008,06,23,01,15,9.90
2008,06,23,01,16,9.90
2008,06,23,01,17,9.90
2008,06,23,01,18,9.90
2008,06,23,01,19,9.80
2008,06,23,01,20,9.80
2008,06,23,01,21,9.80
2008,06,23,01,22,9.80
2008,06,23,01,23,9.80
2008,06,23,01,24,9.80
2008,06,23,01,25,9.80
2008,06,23,01,26,9.80
2008,06,23,01,27,9.80
2008,06,23,01,28,9.70
2008,06,23,01,29,9.70
2008,06,23,01,30,9.70
2008,06,23,01,31,9.70
2008,06,23,01,32,9.70
2008,06,23,01,33,9.70
2008,06,23,01,34,9.70
2008,06,23,01,35,9.70
2008,06,23,01,36,9.70
2008,06,23,01,37,9.60
2008,06,23,01,38,9.60
2008,06,23,01,39,9.60
2008,06,23,01,40,9.60
2008,06,23,01,41,9.60
2008,06,23,01,42,9.60
2008,06,23,01,43,9.60
2008,06,23,01,44,9.60
2008,06,23,01,45,9.60
2008,06,23,01,46,9.50
2008,06,23,01,47,9.50
2008,06,23,01,48,9.50
2008,06,23,01,49,9.50
2008,06,23,01,50,9.40
2008,06,23,01,51,9.40
2008,06,23,01,52,9.40
2008,06,23,01,53,9.40
2008,06,23,01,54,9.40
2008,06,23,01,55,9.40
2008,06,23,01,56,9.40
2008,06,23,01,57,9.40
2008,06,23,01,58,9.40
2008,06,23,01,59,9.40
2008,06,23,02,00,9.40
2008,06,23,02,01,9.40
2008,06,23,02,02,9.30
2008,06,23,02,03,9.30
2008,06,23,02,04,9.30
2008,06,23,02,05,9.30
2008,06,23,02,07,9.30
2008,06,23,02,08,9.30
2008,06,23,02,09,9.30
2008,06,23,02,10,9.20
2008,06,23,02,11,9.20
2008,06,23,02,12,9.20
2008,06,23,02,13,9.20
2008,06,23,02,14,9.20
2008,06,23,02,15,9.20
2008,06,23,02,16,9.20
2008,06,23,02,17,9.20
2008,06,23,02,18,9.20
2008,06,23,02,19,9.10
2008,06,23,02,20,9.10
2008,06,23,02,21,9.10
2008,06,23,02,22,9.10
2008,06,23,02,23,9.10
2008,06,23,02,24,9.10
2008,06,23,02,25,9.10
2008,06,23,02,26,9.10
2008,06,23,02,27,9.10
2008,06,23,02,28,9.10
2008,06,23,02,29,9.10
2008,06,23,02,30,9.10
2008,06,23,02,31,9.00
2008,06,23,02,32,9.00
2008,06,23,02,33,9.00
2008,06,23,02,34,9.00
2008,06,23,02,35,9.00
2008,06,23,02,36,8.90
2008,06,23,02,37,8.90
2008,06,23,02,38,8.90
2008,06,23,02,39,8.90
2008,06,23,02,40,8.90
2008,06,23,02,41,8.90
2008,06,23,02,42,8.90
2008,06,23,02,43,8.90
2008,06,23,02,44,8.90
2008,06,23,02,45,8.90
2008,06,23,02,46,8.80
2008,06,23,02,47,8.80
2008,06,23,02,48,8.80
2008,06,23,02,49,8.80
2008,06,23,02,51,8.80
2008,06,23,02,52,8.80
2008,06,23,02,53,8.80
2008,06,23,02,54,8.80
2008,06,23,02,55,8.80
2008,06,23,02,56,8.70
2008,06,23,02,57,8.70
2008,06,23,02,58,8.70
2008,06,23,02,59,8.70
2008,06,23,03,00,8.70
2008,06,23,03,01,8.70
2008,06,23,03,02,8.70
2008,06,23,03,03,8.70
2008,06,23,03,04,8.70
2008,06,23,03,05,8.70
2008,06,23,03,06,8.60
2008,06,23,03,07,8.60
2008,06,23,03,08,8.60
2008,06,23,03,09,8.60
2008,06,23,03,10,8.60
2008,06,23,03,11,8.60
2008,06,23,03,12,8.60
2008,06,23,03,13,8.60
2008,06,23,03,14,8.60
2008,06,23,03,15,8.60
2008,06,23,03,16,8.50
2008,06,23,03,17,8.50
2008,06,23,03,18,8.50
2008,06,23,03,19,8.40
2008,06,23,03,20,8.40
2008,06,23,03,21,8.40
2008,06,23,03,23,8.40
2008,06,23,03,24,8.40
2008,06,23,03,25,8.40
2008,06,23,03,26,8.30
2008,06,23,03,27,8.30
2008,06,23,03,28,8.30
2008,06,23,03,29,8.30
2008,06,23,03,30,8.30
2008,06,23,03,31,8.30
2008,06,23,03,32,8.30
2008,06,23,03,33,8.30
2008,06,23,03,34,8.30
2008,06,23,03,35,8.30
2008,06,23,03,36,8.30
2008,06,23,03,37,8.30
2008,06,23,03,38,8.30
2008,06,23,03,39,8.20
2008,06,23,03,40,8.20
2008,06,23,03,41,8.20
2008,06,23,03,42,8.20
2008,06,23,03,43,8.20
2008,06,23,03,44,8.20
2008,06,23,03,45,8.20
2008,06,23,03,46,8.20
2008,06,23,03,47,8.20
2008,06,23,03,48,8.20
2008,06,23,03,49,8.10
2008,06,23,03,50,8.10
2008,06,23,03,51,8.10
2008,06,23,03,52,8.10
2008,06,23,03,53,8.10
2008,06,23,03,54,8.10
2008,06,23,03,55,8.10
2008,06,23,03,56,8.10
2008,06,23,03,57,8.10
2008,06,23,03,58,8.10
2008,06,23,03,59,8.10
2008,06,23,04,00,8.10
2008,06,23,04,01,8.10
2008,06,23,04,02,8.00
2008,06,23,04,03,8.00
2008,06,23,04,04,8.00
2008,06,23,04,05,8.00
2008,06,23,04,06,8.00
2008,06,23,04,07,8.00
2008,06,23,04,08,8.00
2008,06,23,04,09,8.00
2008,06,23,04,10,7.90
2008,06,23,04,11,7.90
2008,06,23,04,12,7.90
2008,06,23,04,13,7.90
2008,06,23,04,14,7.90
2008,06,23,04,15,7.90
2008,06,23,04,16,7.90
2008,06,23,04,17,7.90
2008,06,23,04,18,7.90
2008,06,23,04,19,7.90
2008,06,23,04,20,7.90
2008,06,23,04,21,7.90
2008,06,23,04,22,7.90
2008,06,23,04,23,7.90
2008,06,23,04,24,7.90
2008,06,23,04,25,7.90
2008,06,23,04,26,7.90
2008,06,23,04,27,7.80
2008,06,23,04,28,7.80
2008,06,23,04,29,7.80
2008,06,23,04,30,7.80
2008,06,23,04,31,7.80
2008,06,23,04,32,7.80
2008,06,23,04,33,7.80
2008,06,23,04,34,7.80
2008,06,23,04,35,7.70
2008,06,23,04,36,7.70
2008,06,23,04,37,7.70
2008,06,23,04,38,7.70
2008,06,23,04,39,7.70
2008,06,23,04,40,7.70
2008,06,23,04,41,7.70
2008,06,23,04,42,7.70
2008,06,23,04,43,7.60
2008,06,23,04,44,7.60
2008,06,23,04,45,7.60
2008,06,23,04,46,7.60
2008,06,23,04,47,7.60
2008,06,23,04,48,7.60
2008,06,23,04,49,7.60
2008,06,23,04,50,7.60
2008,06,23,04,52,7.50
2008,06,23,04,53,7.50
2008,06,23,04,54,7.50
2008,06,23,04,55,7.50
2008,06,23,04,56,7.50
2008,06,23,04,57,7.50
2008,06,23,04,58,7.40
2008,06,23,04,59,7.40
2008,06,23,05,00,7.40
2008,06,23,05,01,7.40
2008,06,23,05,02,7.40
2008,06,23,05,03,7.40
2008,06,23,05,04,7.40
2008,06,23,05,05,7.40
2008,06,23,05,06,7.40
2008,06,23,05,07,7.40
2008,06,23,05,08,7.30
2008,06,23,05,09,7.30
2008,06,23,05,10,7.30
2008,06,23,05,11,7.30
2008,06,23,05,12,7.30
2008,06,23,05,13,7.30
2008,06,23,05,14,7.30
2008,06,23,05,15,7.20
2008,06,23,05,16,7.20
2008,06,23,05,17,7.20
2008,06,23,05,18,7.20
2008,06,23,05,19,7.20
2008,06,23,05,20,7.20
2008,06,23,05,21,7.20
2008,06,23,05,22,7.20
2008,06,23,05,23,7.20
2008,06,23,05,24,7.10
2008,06,23,05,25,7.10
2008,06,23,05,26,7.10
2008,06,23,05,27,7.10
2008,06,23,05,28,7.10
2008,06,23,05,29,7.10
2008,06,23,05,30,7.00
2008,06,23,05,31,7.00
2008,06,23,05,32,7.00
2008,06,23,05,33,6.90
2008,06,23,05,34,6.90
2008,06,23,05,35,6.90
2008,06,23,05,36,6.90
2008,06,23,05,37,6.90
2008,06,23,05,38,6.90
2008,06,23,05,39,6.90
2008,06,23,05,40,6.90
2008,06,23,05,41,6.90
2008,06,23,05,42,6.90
2008,06,23,05,43,6.80
2008,06,23,05,44,6.80
2008,06,23,05,45,6.80
2008,06,23,05,46,6.80
2008,06,23,05,47,6.80
2008,06,23,05,48,6.80
2008,06,23,05,49,6.80
2008,06,23,05,50,6.80
2008,06,23,05,51,6.80
2008,06,23,05,52,6.80
2008,06,23,05,53,6.80
2008,06,23,05,54,6.80
2008,06,23,05,55,6.80
2008,06,23,05,56,6.80
2008,06,23,05,57,6.80
2008,06,23,05,58,6.80
2008,06,23,05,59,6.90
2008,06,23,06,00,6.90
2008,06,23,06,01,6.90
2008,06,23,06,02,6.90
2008,06,23,06,03,6.90
2008,06,23,06,04,6.90
2008,06,23,06,05,6.90
2008,06,23,06,06,6.90
2008,06,23,06,07,6.90
2008,06,23,06,08,7.00
2008,06,23,06,09,7.00
2008,06,23,06,10,7.00
2008,06,23,06,11,7.00
2008,06,23,06,12,7.10
2008,06,23,06,13,7.10
2008,06,23,06,14,7.10
2008,06,23,06,15,7.20
2008,06,23,06,16,7.20
2008,06,23,06,17,7.20
2008,06,23,06,18,7.20
2008,06,23,06,19,7.20
2008,06,23,06,20,7.20
2008,06,23,06,21,7.20
2008,06,23,06,22,7.20
2008,06,23,06,23,7.30
2008,06,23,06,24,7.30
2008,06,23,06,25,7.30
2008,06,23,06,26,7.30
2008,06,23,06,27,7.30
2008,06,23,06,28,7.40
2008,06,23,06,29,7.40
2008,06,23,06,30,7.40
2008,06,23,06,31,7.40
2008,06,23,06,32,7.40
2008,06,23,06,33,7.50
2008,06,23,06,34,7.60
2008,06,23,06,35,7.60
2008,06,23,06,36,7.60
2008,06,23,06,37,7.60
2008,06,23,06,38,7.70
2008,06,23,06,39,7.70
2008,06,23,06,40,7.70
2008,06,23,06,41,7.70
2008,06,23,06,42,7.70
2008,06,23,06,43,7.80
2008,06,23,06,44,7.80
2008,06,23,06,45,7.80
2008,06,23,06,46,7.80
2008,06,23,06,47,7.80
2008,06,23,06,48,7.80
2008,06,23,06,49,7.80
2008,06,23,06,50,7.90
2008,06,23,06,51,7.90
2008,06,23,06,53,7.90
2008,06,23,06,54,7.90
2008,06,23,06,55,8.00
2008,06,23,06,56,8.10
2008,06,23,06,57,8.10
2008,06,23,06,58,8.10
2008,06,23,06,59,8.10
2008,06,23,07,00,8.20
2008,06,23,07,01,8.20
2008,06,23,07,02,8.20
2008,06,23,07,03,8.20
2008,06,23,07,04,8.30
2008,06,23,07,05,8.30
2008,06,23,07,06,8.30
2008,06,23,07,07,8.30
2008,06,23,07,08,8.40
2008,06,23,07,09,8.40
2008,06,23,07,10,8.40
2008,06,23,07,11,8.50
2008,06,23,07,12,8.50
2008,06,23,07,13,8.60
2008,06,23,07,14,8.60
2008,06,23,07,15,8.60
2008,06,23,07,16,8.70
2008,06,23,07,17,8.70
2008,06,23,07,18,8.70
2008,06,23,07,19,8.70
2008,06,23,07,20,8.80
2008,06,23,07,21,8.80
2008,06,23,07,22,8.80
2008,06,23,07,23,8.80
2008,06,23,07,24,8.80
2008,06,23,07,25,8.90
2008,06,23,07,26,8.90
2008,06,23,07,27,8.90
2008,06,23,07,28,9.00
2008,06,23,07,29,9.00
2008,06,23,07,30,9.10
2008,06,23,07,31,9.10
2008,06,23,07,32,9.10
2008,06,23,07,33,9.20
2008,06,23,07,34,9.20
2008,06,23,07,35,9.20
2008,06,23,07,36,9.30
2008,06,23,07,37,9.30
2008,06,23,07,38,9.30
2008,06,23,07,39,9.40
2008,06,23,07,40,9.40
2008,06,23,07,41,9.50
2008,06,23,07,42,9.50
2008,06,23,07,43,9.60
2008,06,23,07,44,9.60
2008,06,23,07,45,9.60
2008,06,23,07,46,9.70
2008,06,23,07,47,9.70
2008,06,23,07,48,9.70
2008,06,23,07,49,9.80
2008,06,23,07,50,9.80
2008,06,23,07,51,9.80
2008,06,23,07,52,9.80
2008,06,23,07,53,9.80
2008,06,23,07,54,9.80
2008,06,23,07,55,9.80
2008,06,23,07,56,9.80
2008,06,23,07,57,9.80
2008,06,23,07,58,9.80
2008,06,23,07,59,9.80
2008,06,23,08,00,9.80
2008,06,23,08,01,9.80
2008,06,23,08,02,9.80
2008,06,23,08,03,9.80
2008,06,23,08,04,9.80
2008,06,23,08,05,9.80
2008,06,23,08,06,9.80
2008,06,23,08,07,9.80
2008,06,23,08,08,9.80
2008,06,23,08,09,9.80
2008,06,23,08,10,9.80
2008,06,23,08,11,9.90
2008,06,23,08,12,9.90
2008,06,23,08,13,10.00
2008,06,23,08,14,10.00
2008,06,23,08,15,10.10
2008,06,23,08,16,10.10
2008,06,23,08,17,10.20
2008,06,23,08,18,10.20
2008,06,23,08,19,10.30
2008,06,23,08,20,10.30
2008,06,23,08,21,10.30
2008,06,23,08,22,10.40
2008,06,23,08,23,10.40
2008,06,23,08,24,10.50
2008,06,23,08,25,10.60
2008,06,23,08,26,10.70
2008,06,23,08,27,10.70
2008,06,23,08,28,10.70
2008,06,23,08,29,10.80
2008,06,23,08,30,10.80
2008,06,23,08,31,10.80
2008,06,23,08,32,10.90
2008,06,23,08,33,10.90
2008,06,23,08,34,10.80
2008,06,23,08,35,10.90
2008,06,23,08,36,10.90
2008,06,23,08,37,10.90
2008,06,23,08,38,10.90
2008,06,23,08,39,10.90
2008,06,23,08,40,10.90
2008,06,23,08,41,10.90
2008,06,23,08,42,10.90
2008,06,23,08,43,10.90
2008,06,23,08,44,10.90
2008,06,23,08,45,10.90
2008,06,23,08,46,11.00
2008,06,23,08,47,11.10
2008,06,23,08,48,11.10
2008,06,23,08,49,11.10
2008,06,23,08,50,11.10
2008,06,23,08,51,11.20
2008,06,23,08,52,11.20
2008,06,23,08,54,11.30
2008,06,23,08,55,11.40
2008,06,23,08,56,11.40
2008,06,23,08,57,11.50
2008,06,23,08,58,11.50
2008,06,23,08,59,11.60
2008,06,23,09,00,11.60
2008,06,23,09,01,11.70
2008,06,23,09,02,11.70
2008,06,23,09,03,11.80
2008,06,23,09,04,11.90
2008,06,23,09,05,11.90
2008,06,23,09,06,12.10
2008,06,23,09,07,12.20
2008,06,23,09,08,12.30
2008,06,23,09,09,12.40
2008,06,23,09,10,12.50
2008,06,23,09,11,12.60
2008,06,23,09,12,12.70
2008,06,23,09,13,12.80
2008,06,23,09,14,12.90
2008,06,23,09,15,12.90
2008,06,23,09,16,12.90
2008,06,23,09,17,12.90
2008,06,23,09,18,13.00
2008,06,23,09,19,13.00
2008,06,23,09,20,13.00
2008,06,23,09,21,13.10
2008,06,23,09,22,13.10
2008,06,23,09,23,13.10
2008,06,23,09,24,13.10
2008,06,23,09,25,13.10
2008,06,23,09,26,13.10
2008,06,23,09,27,13.10
2008,06,23,09,28,13.10
2008,06,23,09,29,13.10
2008,06,23,09,30,13.10
2008,06,23,09,31,13.10
2008,06,23,09,32,13.10
2008,06,23,09,33,13.10
2008,06,23,09,34,13.10
2008,06,23,09,35,13.10
2008,06,23,09,36,13.10
2008,06,23,09,37,13.20
2008,06,23,09,38,13.20
2008,06,23,09,39,13.30
2008,06,23,09,40,13.30
2008,06,23,09,41,13.40
2008,06,23,09,42,13.40
2008,06,23,09,43,13.60
2008,06,23,09,44,13.60
2008,06,23,09,45,13.60
2008,06,23,09,46,13.70
2008,06,23,09,47,13.70
2008,06,23,09,48,13.70
2008,06,23,09,49,13.80
2008,06,23,09,50,13.80
2008,06,23,09,51,13.80
2008,06,23,09,52,13.90
2008,06,23,09,53,13.90
2008,06,23,09,54,14.10
2008,06,23,09,55,14.10
2008,06,23,09,56,14.20
2008,06,23,09,57,14.20
2008,06,23,09,58,14.30
2008,06,23,09,59,14.30
2008,06,23,10,00,14.40
2008,06,23,10,01,14.40
2008,06,23,10,02,14.50
2008,06,23,10,03,14.60
2008,06,23,10,04,14.70
2008,06,23,10,05,14.70
2008,06,23,10,06,14.80
2008,06,23,10,07,14.80
2008,06,23,10,08,14.90
2008,06,23,10,09,14.90
2008,06,23,10,10,15.00
2008,06,23,10,11,15.00
2008,06,23,10,12,15.00
2008,06,23,10,13,15.00
2008,06,23,10,14,15.00
2008,06,23,10,15,15.00
2008,06,23,10,16,15.00
2008,06,23,10,17,15.00
2008,06,23,10,18,15.00
2008,06,23,10,19,15.00
2008,06,23,10,20,15.00
2008,06,23,10,21,15.00
2008,06,23,10,22,15.00
2008,06,23,10,23,15.00
2008,06,23,10,24,15.00
2008,06,23,10,25,15.00
2008,06,23,10,26,15.00
2008,06,23,10,27,15.00
2008,06,23,10,28,15.00
2008,06,23,10,29,15.00
2008,06,23,10,30,15.20
2008,06,23,10,31,15.20
2008,06,23,10,32,15.30
2008,06,23,10,33,15.40
2008,06,23,10,34,15.50
2008,06,23,10,35,15.60
2008,06,23,10,37,15.70
2008,06,23,10,38,15.70
2008,06,23,10,39,15.80
2008,06,23,10,40,15.80
2008,06,23,10,41,15.80
2008,06,23,10,42,15.80
2008,06,23,10,43,15.90
2008,06,23,10,44,15.90
2008,06,23,10,45,15.90
2008,06,23,10,46,15.90
2008,06,23,10,47,15.90
2008,06,23,10,48,15.90
2008,06,23,10,49,16.00
2008,06,23,10,50,16.10
2008,06,23,10,51,16.10
2008,06,23,10,52,16.10
2008,06,23,10,53,16.20
2008,06,23,10,54,16.20
2008,06,23,10,55,16.30
2008,06,23,10,56,16.30
2008,06,23,10,57,16.40
2008,06,23,10,58,16.40
2008,06,23,10,59,16.60
2008,06,23,11,00,16.60
2008,06,23,11,01,16.60
2008,06,23,11,02,16.70
2008,06,23,11,03,16.70
2008,06,23,11,04,16.70
2008,06,23,11,05,16.80
2008,06,23,11,06,16.80
2008,06,23,11,07,16.80
2008,06,23,11,08,16.80
2008,06,23,11,09,16.90
2008,06,23,11,10,16.90
2008,06,23,11,11,16.90
2008,06,23,11,12,16.90
2008,06,23,11,13,16.90
2008,06,23,11,14,16.90
2008,06,23,11,15,16.90
2008,06,23,11,16,16.90
2008,06,23,11,17,16.90
2008,06,23,11,18,16.90
2008,06,23,11,19,16.90
2008,06,23,11,20,17.00
2008,06,23,11,21,17.00
2008,06,23,11,22,17.10
2008,06,23,11,23,17.10
2008,06,23,11,24,17.20
2008,06,23,11,25,17.20
2008,06,23,11,26,17.30
2008,06,23,11,27,17.30
2008,06,23,11,28,17.30
2008,06,23,11,29,17.40
2008,06,23,11,30,17.40
2008,06,23,11,31,17.40
2008,06,23,11,32,17.50
2008,06,23,11,33,17.50
2008,06,23,11,34,17.50
2008,06,23,11,35,17.60
2008,06,23,11,36,17.60
2008,06,23,11,37,17.70
2008,06,23,11,38,17.70
2008,06,23,11,39,17.70
2008,06,23,11,40,17.70
2008,06,23,11,41,17.70
2008,06,23,11,42,17.70
2008,06,23,11,43,17.80
2008,06,23,11,44,17.80
2008,06,23,11,45,17.80
2008,06,23,11,46,17.80
2008,06,23,11,47,17.80
2008,06,23,11,48,17.80
2008,06,23,11,49,17.80
2008,06,23,11,50,17.80
2008,06,23,11,51,17.80
2008,06,23,11,52,17.80
2008,06,23,11,53,17.70
2008,06,23,11,54,17.70
2008,06,23,11,55,17.60
2008,06,23,11,56,17.50
2008,06,23,11,57,17.40
2008,06,23,11,58,17.30
2008,06,23,11,59,17.30
2008,06,23,12,00,17.30
2008,06,23,12,01,17.40
2008,06,23,12,02,17.40
2008,06,23,12,03,17.40
2008,06,23,12,04,17.50
2008,06,23,12,05,17.60
2008,06,23,12,06,17.70
2008,06,23,12,07,17.70
2008,06,23,12,08,17.80
2008,06,23,12,09,17.80
2008,06,23,12,10,17.90
2008,06,23,12,11,17.90
2008,06,23,12,12,18.10
2008,06,23,12,13,18.10
2008,06,23,12,14,18.20
2008,06,23,12,15,18.30
2008,06,23,12,16,18.30
2008,06,23,12,17,18.40
2008,06,23,12,18,18.50
2008,06,23,12,19,18.60
2008,06,23,12,20,18.70
2008,06,23,12,21,18.70
2008,06,23,12,22,18.80
2008,06,23,12,23,18.80
2008,06,23,12,24,18.90
2008,06,23,12,25,18.90
2008,06,23,12,26,18.90
2008,06,23,12,28,18.80
2008,06,23,12,29,18.80
2008,06,23,12,30,18.90
2008,06,23,12,31,18.90
2008,06,23,12,32,19.00
2008,06,23,12,34,19.20
2008,06,23,12,35,19.30
2008,06,23,12,36,19.40
2008,06,23,12,37,19.60
2008,06,23,12,38,19.70
2008,06,23,12,39,19.80
2008,06,23,12,40,19.90
2008,06,23,12,41,20.00
2008,06,23,12,42,20.10
2008,06,23,12,43,20.20
2008,06,23,12,44,20.20
2008,06,23,12,45,20.30
2008,06,23,12,46,20.30
2008,06,23,12,47,20.40
2008,06,23,12,48,20.40
2008,06,23,12,49,20.50
2008,06,23,12,50,20.50
2008,06,23,12,51,20.60
2008,06,23,12,52,20.70
2008,06,23,12,53,20.70
2008,06,23,12,54,20.80
2008,06,23,12,55,20.80
2008,06,23,12,56,20.90
2008,06,23,12,57,21.00
2008,06,23,12,58,21.10
2008,06,23,12,59,21.20
2008,06,23,13,00,21.20
2008,06,23,13,01,21.30
2008,06,23,13,02,21.40
2008,06,23,13,03,21.60
2008,06,23,13,04,21.70
2008,06,23,13,05,21.80
2008,06,23,13,06,21.90
2008,06,23,13,07,22.10
2008,06,23,13,08,22.20
2008,06,23,13,09,22.30
2008,06,23,13,10,22.30
2008,06,23,13,11,22.40
2008,06,23,13,12,22.50
2008,06,23,13,13,22.60
2008,06,23,13,14,22.70
2008,06,23,13,15,22.70
2008,06,23,13,16,22.80
2008,06,23,13,17,22.90
2008,06,23,13,18,22.90
2008,06,23,13,19,22.90
2008,06,23,13,20,23.00
2008,06,23,13,21,23.00
2008,06,23,13,22,23.00
2008,06,23,13,23,23.10
2008,06,23,13,24,23.10
2008,06,23,13,25,23.10
2008,06,23,13,26,23.10
2008,06,23,13,27,23.10
2008,06,23,13,28,23.10
2008,06,23,13,29,23.10
2008,06,23,13,30,23.10
2008,06,23,13,31,23.10
2008,06,23,13,32,23.00
2008,06,23,13,33,23.00
2008,06,23,13,34,23.00
2008,06,23,13,35,23.00
2008,06,23,13,36,23.00
2008,06,23,13,37,23.10
2008,06,23,13,38,23.10
2008,06,23,13,39,23.10
2008,06,23,13,40,23.10
2008,06,23,13,41,23.10
2008,06,23,13,42,23.10
2008,06,23,13,43,23.10
2008,06,23,13,44,23.10
2008,06,23,13,45,23.20
2008,06,23,13,46,23.20
2008,06,23,13,47,23.20
2008,06,23,13,48,23.30
2008,06,23,13,49,23.40
2008,06,23,13,50,23.40
2008,06,23,13,51,23.40
2008,06,23,13,52,23.40
2008,06,23,13,53,23.50
2008,06,23,13,54,23.50
2008,06,23,13,55,23.50
2008,06,23,13,56,23.60
2008,06,23,13,57,23.60
2008,06,23,13,58,23.60
2008,06,23,13,59,23.70
2008,06,23,14,00,23.70
2008,06,23,14,01,23.80
2008,06,23,14,02,23.90
2008,06,23,14,03,23.90
2008,06,23,14,04,24.00
2008,06,23,14,05,24.10
2008,06,23,14,06,24.10
2008,06,23,14,07,24.10
2008,06,23,14,08,24.10
2008,06,23,14,09,24.20
2008,06,23,14,10,24.20
2008,06,23,14,11,24.20
2008,06,23,14,12,24.20
2008,06,23,14,13,24.20
2008,06,23,14,14,24.20
2008,06,23,14,15,24.20
2008,06,23,14,16,24.30
2008,06,23,14,17,24.30
2008,06,23,14,18,24.30
2008,06,23,14,19,24.20
2008,06,23,14,20,24.20
2008,06,23,14,21,24.20
2008,06,23,14,22,24.20
2008,06,23,14,23,24.20
2008,06,23,14,24,24.20
2008,06,23,14,25,24.20
2008,06,23,14,26,24.20
2008,06,23,14,27,24.20
2008,06,23,14,28,24.20
2008,06,23,14,29,24.20
2008,06,23,14,30,24.20
2008,06,23,14,31,24.20
2008,06,23,14,32,24.10
2008,06,23,14,33,24.10
2008,06,23,14,34,24.10
2008,06,23,14,35,24.00
2008,06,23,14,36,24.00
2008,06,23,14,37,23.90
2008,06,23,14,38,23.90
2008,06,23,14,39,23.90
2008,06,23,14,40,23.80
2008,06,23,14,41,23.80
2008,06,23,14,42,23.80
2008,06,23,14,43,23.80
2008,06,23,14,44,23.80
2008,06,23,14,45,23.80
2008,06,23,14,46,23.80
2008,06,23,14,47,23.80
2008,06,23,14,48,23.80
2008,06,23,14,49,23.80
2008,06,23,14,50,23.90
2008,06,23,14,51,23.90
2008,06,23,14,52,24.00
2008,06,23,14,53,24.00
2008,06,23,14,54,24.10
2008,06,23,14,55,24.10
2008,06,23,14,56,24.20
2008,06,23,14,57,24.20
2008,06,23,14,58,24.20
2008,06,23,14,59,24.30
2008,06,23,15,00,24.30
2008,06,23,15,01,24.30
2008,06,23,15,02,24.40
2008,06,23,15,03,24.40
2008,06,23,15,04,24.50
2008,06,23,15,05,24.60
2008,06,23,15,06,24.60
2008,06,23,15,07,24.70
2008,06,23,15,08,24.70
2008,06,23,15,09,24.70
2008,06,23,15,10,24.70
2008,06,23,15,11,24.80
2008,06,23,15,12,24.80
2008,06,23,15,13,24.80
2008,06,23,15,14,24.80
2008,06,23,15,15,24.80
2008,06,23,15,16,24.80
2008,06,23,15,17,24.80
2008,06,23,15,18,24.80
2008,06,23,15,19,24.80
2008,06,23,15,20,24.90
2008,06,23,15,21,24.90
2008,06,23,15,22,24.90
2008,06,23,15,23,24.90
2008,06,23,15,24,24.90
2008,06,23,15,25,25.00
2008,06,23,15,26,25.00
2008,06,23,15,27,24.90
2008,06,23,15,28,24.90
2008,06,23,15,29,24.90
2008,06,23,15,30,24.90
2008,06,23,15,31,24.90
2008,06,23,15,32,24.80
2008,06,23,15,33,24.80
2008,06,23,15,34,24.80
2008,06,23,15,35,24.80
2008,06,23,15,36,24.80
2008,06,23,15,37,24.80
2008,06,23,15,38,24.70
2008,06,23,15,39,24.70
2008,06,23,15,40,24.70
2008,06,23,15,41,24.70
2008,06,23,15,42,24.80
2008,06,23,15,43,24.80
2008,06,23,15,44,24.70
2008,06,23,15,45,24.70
2008,06,23,15,46,24.70
2008,06,23,15,47,24.70
2008,06,23,15,48,24.80
2008,06,23,15,49,24.80
2008,06,23,15,50,24.80
2008,06,23,15,51,24.80
2008,06,23,15,52,24.80
2008,06,23,15,53,24.80
2008,06,23,15,54,24.80
2008,06,23,15,55,24.80
2008,06,23,15,56,24.80
2008,06,23,15,57,24.80
2008,06,23,15,58,24.80
2008,06,23,15,59,24.80
2008,06,23,16,00,24.70
2008,06,23,16,01,24.70
2008,06,23,16,02,24.70
2008,06,23,16,03,24.70
2008,06,23,16,04,24.60
2008,06,23,16,05,24.40
2008,06,23,16,06,24.30
2008,06,23,16,07,24.30
2008,06,23,16,08,24.20
2008,06,23,16,09,24.10
2008,06,23,16,10,24.10
2008,06,23,16,11,24.10
2008,06,23,16,12,24.00
2008,06,23,16,13,24.00
2008,06,23,16,14,23.90
2008,06,23,16,15,23.90
2008,06,23,16,16,24.00
2008,06,23,16,17,24.10
2008,06,23,16,18,24.10
2008,06,23,16,19,24.10
2008,06,23,16,20,24.10
2008,06,23,16,21,24.20
2008,06,23,16,22,24.20
2008,06,23,16,23,24.20
2008,06,23,16,24,24.20
2008,06,23,16,25,24.20
2008,06,23,16,26,24.20
2008,06,23,16,27,24.20
2008,06,23,16,28,24.20
2008,06,23,16,29,24.20
2008,06,23,16,30,24.20
2008,06,23,16,31,24.20
2008,06,23,16,32,24.20
2008,06,23,16,33,24.20
2008,06,23,16,34,24.20
2008,06,23,16,35,24.20
2008,06,23,16,36,24.20
2008,06,23,16,37,24.20
2008,06,23,16,38,24.20
2008,06,23,16,39,24.20
2008,06,23,16,40,24.20
2008,06,23,16,41,24.20
2008,06,23,16,42,24.10
2008,06,23,16,43,24.10
2008,06,23,16,44,23.90
2008,06,23,16,45,23.90
2008,06,23,16,46,23.80
2008,06,23,16,47,23.70
2008,06,23,16,48,23.70
2008,06,23,16,49,23.60
2008,06,23,16,50,23.50
2008,06,23,16,51,23.40
2008,06,23,16,52,23.30
2008,06,23,16,53,23.20
2008,06,23,16,54,23.20
2008,06,23,16,55,23.10
2008,06,23,16,56,23.00
2008,06,23,16,57,22.90
2008,06,23,16,58,22.80
2008,06,23,16,59,22.80
2008,06,23,17,00,22.80
2008,06,23,17,01,22.70
2008,06,23,17,02,22.70
2008,06,23,17,03,22.60
2008,06,23,17,04,22.40
2008,06,23,17,05,22.30
2008,06,23,17,06,22.20
2008,06,23,17,07,22.10
2008,06,23,17,08,21.90
2008,06,23,17,09,21.80
2008,06,23,17,10,21.60
2008,06,23,17,11,21.60
2008,06,23,17,12,21.40
2008,06,23,17,13,21.30
2008,06,23,17,14,21.30
2008,06,23,17,15,21.20
2008,06,23,17,16,21.20
2008,06,23,17,17,21.20
2008,06,23,17,18,21.10
2008,06,23,17,19,21.10
2008,06,23,17,20,21.00
2008,06,23,17,21,20.90
2008,06,23,17,22,20.90
2008,06,23,17,23,20.80
2008,06,23,17,24,20.80
2008,06,23,17,25,20.80
2008,06,23,17,26,20.80
2008,06,23,17,27,20.70
2008,06,23,17,28,20.70
2008,06,23,17,29,20.70
2008,06,23,17,30,20.70
2008,06,23,17,31,20.80
2008,06,23,17,32,20.80
2008,06,23,17,33,20.80
2008,06,23,17,34,20.90
2008,06,23,17,35,20.90
2008,06,23,17,36,21.10
2008,06,23,17,37,21.10
2008,06,23,17,38,21.20
2008,06,23,17,39,21.30
2008,06,23,17,40,21.40
2008,06,23,17,41,21.50
2008,06,23,17,42,21.60
2008,06,23,17,43,21.70
2008,06,23,17,44,21.80
2008,06,23,17,45,21.80
2008,06,23,17,46,21.90
2008,06,23,17,47,21.90
2008,06,23,17,48,21.90
2008,06,23,17,49,22.00
2008,06,23,17,50,22.00
2008,06,23,17,51,22.10